Spokane Felts, WA

4:38 AM PDT on July 28, 2017 (GMT -0700)
Felts

Weather History for KSFF - April, 2013

Change the Weather History Date:

Wednesday, April 24, 2013

  Actual Average Record
Temperature  
Mean Temperature 48 °F 49 °F  
Max Temperature 64 °F 61 °F 78 °F (2005)
Min Temperature 31 °F 37 °F 25 °F (2002)
Degree Days  
Heating Degree Days 17 16  
Month to date heating degree days 442 441  
Since 1 July heating degree days 5238 5762  
Cooling Degree Days 0 0  
Month to date cooling degree days 0 0  
Year to date cooling degree days 0 0  
Moisture  
Dew Point 28 °F    
Average Humidity 55    
Maximum Humidity 85    
Minimum Humidity 25    
Precipitation  
Precipitation 0.00 in 0.03 in 0.33 in (2014)
Month to date precipitation 1.14 1.01  
Year to date precipitation 4.37 5.91  
Sea Level Pressure  
Sea Level Pressure 30.17 in    
Wind  
Wind Speed 4 mph (WNW)    
Max Wind Speed 16 mph    
Max Gust Speed 22 mph    
Visibility 10 miles    
Events      
T = Trace of Precipitation, MM = Missing Value Source: NWS Daily Summary

Daily Weather History Graph

Daily Weather History Graph

Search for Another Location

Airport or City:

Trip Planner

Search our weather history database for the weather conditions in past years. The results will help you decide how hot, cold, wet, or windy it might be!

Date:

Astronomy

Apr. 24, 2013 Rise Set
Actual Time 5:43 AM PDT 7:52 PM PDT
Civil Twilight 5:09 AM PDT 8:25 PM PDT
Nautical Twilight 4:28 AM PDT 9:07 PM PDT
Astronomical Twilight 3:41 AM PDT 9:54 PM PDT
Moon 6:59 PM PDT (4/24) 4:54 AM PDT (4/24)
Length of Visible Light 15h 16m
Length of Day
14h 09m
Waxing Gibbous, 98% of the Moon is Illuminated
Apr 24
Waxing Gibbous
Apr 25
Full
May 2
Last Quarter
May 9
New
May 17
First Quarter

Hourly Weather History & Observations

Time (PDT) Temp. Windchill Dew Point Humidity Pressure Visibility Wind Dir Wind Speed Gust Speed Precip Events Conditions
12:53 AM 37.0 °F - 28.9 °F 73% 30.27 in 10.0 mi Calm Calm - N/A   Clear
1:53 AM 35.1 °F 32.2 °F 28.9 °F 78% 30.27 in 10.0 mi NE 3.5 mph - N/A   Clear
2:53 AM 35.6 °F - 28.4 °F 75% 30.25 in 10.0 mi Calm Calm - N/A   Clear
3:53 AM 33.1 °F - 28.0 °F 82% 30.29 in 10.0 mi Calm Calm - N/A   Clear
4:53 AM 32.0 °F - 28.0 °F 85% 30.30 in 10.0 mi Calm Calm - N/A   Clear
5:53 AM 32.0 °F 28.7 °F 28.0 °F 85% 30.29 in 10.0 mi ENE 3.5 mph - N/A   Clear
6:53 AM 35.1 °F - 28.9 °F 78% 30.30 in 10.0 mi Calm Calm - N/A   Clear
7:53 AM 39.0 °F - 30.9 °F 73% 30.31 in 10.0 mi Calm Calm - N/A   Clear
8:53 AM 45.0 °F 43.5 °F 30.0 °F 56% 30.30 in 10.0 mi Variable 3.5 mph - N/A   Clear
9:53 AM 50.0 °F - 30.0 °F 46% 30.28 in 10.0 mi Calm Calm - N/A   Clear
10:53 AM 54.0 °F - 28.0 °F 37% 30.27 in 10.0 mi Calm Calm - N/A   Clear
11:53 AM 57.0 °F - 28.0 °F 33% 30.24 in 10.0 mi Variable 3.5 mph - N/A   Partly Cloudy
12:53 PM 59.0 °F - 28.0 °F 31% 30.20 in 10.0 mi SW 15.0 mph 20.7 mph N/A   Clear
1:53 PM 61.0 °F - 27.0 °F 27% 30.17 in 10.0 mi West 9.2 mph - N/A   Partly Cloudy
2:53 PM 62.1 °F - 28.0 °F 28% 30.14 in 10.0 mi West 8.1 mph 16.1 mph N/A   Partly Cloudy
3:53 PM 62.1 °F - 28.0 °F 28% 30.11 in 10.0 mi SW 10.4 mph 17.3 mph N/A   Clear
4:53 PM 63.0 °F - 27.0 °F 26% 30.08 in 10.0 mi West 6.9 mph 16.1 mph N/A   Clear
5:53 PM 61.0 °F - 27.0 °F 27% 30.05 in 10.0 mi West 8.1 mph 18.4 mph N/A   Clear
6:53 PM 60.1 °F - 25.0 °F 26% 30.04 in 10.0 mi WSW 9.2 mph - N/A   Clear
7:53 PM 55.9 °F - 28.0 °F 34% 30.02 in 10.0 mi Calm Calm - N/A   Clear
8:53 PM 52.0 °F - 28.0 °F 40% 30.01 in 10.0 mi Calm Calm - N/A   Clear
9:53 PM 50.0 °F - 30.0 °F 46% 30.00 in 10.0 mi Calm Calm - N/A   Clear
10:53 PM 45.0 °F 43.5 °F 32.0 °F 60% 29.99 in 10.0 mi NE 3.5 mph - N/A   Clear
11:53 PM 46.0 °F 44.8 °F 28.9 °F 51% 29.97 in 10.0 mi NNE 3.5 mph - N/A   Clear